Location: Unspecified
(40.7945°N, 111.1337°W)
Time: 17:10:09
(UTC-06:00)

Cosmos 2058 - Visible Passes

Search period start: 20 August 2017 00:00
Search period end: 30 August 2017 00:00
Orbit: 562 x 586 km, 82.5° (Epoch: 20 August)

Date Brightness Start Highest point End Pass type
(mag) Time Alt. Az. Time Alt. Az. Time Alt. Az.
20 Aug 5.0 03:17:33 10° N 03:19:10 23° N 03:19:10 23° N visible
21 Aug 5.2 03:20:54 10° N 03:22:08 19° NNW 03:22:08 19° NNW visible
22 Aug 5.4 03:24:17 10° NNW 03:25:07 15° NNW 03:25:07 15° NNW visible
23 Aug 5.6 03:27:44 10° NNW 03:28:07 12° NNW 03:28:07 12° NNW visible
24 Aug 6.2 01:54:55 10° NNE 01:54:57 10° NNE 01:54:57 10° NNE visible
25 Aug 6.2 01:57:54 10° NNE 01:57:59 10° NNE 01:57:59 10° NNE visible
26 Aug 6.2 02:00:59 10° NNE 02:01:03 10° NNE 02:01:03 10° NNE visible
